Litchfield, MN

8:08 AM CST on February 20, 2017 (GMT -0600)
Litchfield Municipal

Weather History for KLJF - January, 2015

Change the Weather History Date:

Wednesday, January 7, 2015

  Actual Average Record
Temperature  
Mean Temperature -4 °F -  
Max Temperature 0 °F 16 °F 50 °F (2003)
Min Temperature -7 °F -2 °F -27 °F (1982)
Degree Days  
Heating Degree Days 68    
Moisture  
Dew Point -13 °F    
Average Humidity 67    
Maximum Humidity 84    
Minimum Humidity 59    
Precipitation  
Precipitation 0.00 in - - ()
Sea Level Pressure  
Sea Level Pressure 30.75 in    
Wind  
Wind Speed 14 mph (WNW)    
Max Wind Speed 22 mph    
Max Gust Speed 33 mph    
Visibility 10 miles    
Events      
Averages and records for this station are not official NWS values.
T = Trace of Precipitation, MM = Missing Value Source: NWS Daily Summary

Daily Weather History Graph

Daily Weather History Graph

Search for Another Location

Airport or City:

Trip Planner

Search our weather history database for the weather conditions in past years. The results will help you decide how hot, cold, wet, or windy it might be!

Date:

Astronomy

Jan. 07, 2015 Rise Set
Actual Time 7:56 AM CST 4:52 PM CST
Civil Twilight 7:22 AM CST 5:26 PM CST
Nautical Twilight 6:45 AM CST 6:02 PM CST
Astronomical Twilight 6:10 AM CST 6:38 PM CST
Moon 7:46 PM CST (1/7) 9:02 AM CST (1/7)
Length of Visible Light 10h 03m
Length of Day
8h 56m
Waning Gibbous, 94% of the Moon is Illuminated
Jan 7
Waning Gibbous
Jan 13
Last Quarter
Jan 20
New
Jan 26
First Quarter
Feb 3
Full

Hourly Weather History & Observations

Time (CST) Temp. Windchill Dew Point Humidity Pressure Visibility Wind Dir Wind Speed Gust Speed Precip Events Conditions
12:13 AM -4.0 °F -27.6 °F -14.8 °F 60% 30.63 in 10.0 mi NNW 20.7 mph 29.9 mph N/A   Clear
12:33 AM -4.0 °F -25.8 °F -14.8 °F 60% 30.65 in 10.0 mi NNW 17.3 mph 23.0 mph N/A   Clear
12:52 AM -5.8 °F -27.5 °F -14.8 °F 65% 30.65 in 10.0 mi NNW 16.1 mph 25.3 mph N/A   Clear
1:13 AM -5.8 °F -29.4 °F -14.8 °F 65% 30.67 in 10.0 mi NW 19.6 mph 26.5 mph N/A   Clear
1:33 AM -5.8 °F -28.8 °F -14.8 °F 65% 30.68 in 10.0 mi NW 18.4 mph 26.5 mph N/A   Clear
1:52 AM -5.8 °F -26.8 °F -14.8 °F 65% 30.69 in 10.0 mi NW 15.0 mph 21.9 mph N/A   Clear
2:13 AM -5.8 °F -26.0 °F -16.6 °F 60% 30.71 in 10.0 mi NW 13.8 mph 19.6 mph N/A   Clear
2:33 AM -5.8 °F -24.4 °F -16.6 °F 60% 30.72 in 10.0 mi NW 11.5 mph - N/A   Clear
2:53 AM -5.8 °F -26.8 °F -16.6 °F 60% 30.74 in 10.0 mi NW 15.0 mph 24.2 mph N/A   Clear
3:12 AM -5.8 °F -26.0 °F -16.6 °F 60% 30.74 in 10.0 mi NW 13.8 mph 21.9 mph N/A   Clear
3:53 AM -5.8 °F -29.4 °F -16.6 °F 60% 30.77 in 10.0 mi NW 19.6 mph 25.3 mph N/A   Clear
4:12 AM -7.6 °F -29.1 °F -16.6 °F 65% 30.77 in 10.0 mi NW 15.0 mph 28.8 mph N/A   Clear
4:33 AM -7.6 °F -31.7 °F -18.4 °F 59% 30.78 in 10.0 mi NW 19.6 mph 33.4 mph N/A   Clear
4:53 AM -7.6 °F -29.1 °F -16.6 °F 65% 30.78 in 10.0 mi NW 15.0 mph 29.9 mph N/A   Clear
5:13 AM -7.6 °F -28.3 °F -16.6 °F 65% 30.79 in 10.0 mi NW 13.8 mph 18.4 mph N/A   Clear
5:33 AM -7.6 °F -27.5 °F -16.6 °F 65% 30.80 in 10.0 mi NW 12.7 mph 18.4 mph N/A   Clear
5:53 AM -7.6 °F -26.6 °F -16.6 °F 65% 30.81 in 10.0 mi NW 11.5 mph - N/A   Clear
6:13 AM -7.6 °F -28.3 °F -16.6 °F 65% 30.81 in 10.0 mi NW 13.8 mph 18.4 mph N/A   Clear
6:53 AM -7.6 °F -29.8 °F -16.6 °F 65% 30.83 in 10.0 mi NW 16.1 mph 20.7 mph N/A   Clear
7:13 AM -7.6 °F -29.8 °F -18.4 °F 59% 30.85 in 10.0 mi NW 16.1 mph 24.2 mph N/A   Clear
7:33 AM -7.6 °F -32.9 °F -16.6 °F 65% 30.87 in 10.0 mi NNW 21.9 mph 28.8 mph N/A   Clear
7:53 AM -7.6 °F -28.3 °F -18.4 °F 59% 30.87 in 10.0 mi NW 13.8 mph 24.2 mph N/A   Clear
8:13 AM -7.6 °F -29.8 °F -18.4 °F 59% 30.88 in 10.0 mi NW 16.1 mph 21.9 mph N/A   Clear
8:33 AM -7.6 °F -29.8 °F -16.6 °F 65% 30.89 in 10.0 mi NW 16.1 mph 23.0 mph N/A   Clear
8:53 AM -7.6 °F -29.8 °F -16.6 °F 65% 30.90 in 10.0 mi NW 16.1 mph 24.2 mph N/A   Clear
9:12 AM -7.6 °F -29.1 °F -16.6 °F 65% 30.89 in 10.0 mi NW 15.0 mph 25.3 mph N/A   Clear
9:33 AM -7.6 °F -27.5 °F -16.6 °F 65% 30.90 in 10.0 mi NW 12.7 mph 19.6 mph N/A   Clear
9:53 AM -7.6 °F -29.8 °F -16.6 °F 65% 30.92 in 10.0 mi NW 16.1 mph 25.3 mph N/A   Clear
10:12 AM -5.8 °F -26.8 °F -16.6 °F 60% 30.93 in 10.0 mi NW 15.0 mph 21.9 mph N/A   Clear
10:33 AM -5.8 °F -26.0 °F -14.8 °F 65% 30.92 in 10.0 mi NW 13.8 mph - N/A   Clear
10:53 AM -5.8 °F -26.0 °F -14.8 °F 65% 30.92 in 10.0 mi NNW 13.8 mph 17.3 mph N/A   Clear
11:12 AM -5.8 °F -25.2 °F -14.8 °F 65% 30.92 in 10.0 mi NW 12.7 mph 19.6 mph N/A   Clear
11:33 AM -4.0 °F -23.7 °F -14.8 °F 60% 30.92 in 10.0 mi NW 13.8 mph 20.7 mph N/A   Clear
11:53 AM -4.0 °F -22.1 °F -13.0 °F 65% 30.90 in 10.0 mi NW 11.5 mph 17.3 mph N/A   Clear
12:12 PM -2.2 °F -19.9 °F -11.2 °F 66% 30.90 in 10.0 mi WNW 11.5 mph 17.3 mph N/A   Clear
12:33 PM -2.2 °F -18.9 °F -11.2 °F 66% 30.88 in 10.0 mi WNW 10.4 mph - N/A   Clear
12:53 PM -2.2 °F -20.7 °F -11.2 °F 66% 30.87 in 10.0 mi WNW 12.7 mph 17.3 mph N/A   Clear
1:12 PM -2.2 °F -18.9 °F -11.2 °F 66% 30.86 in 10.0 mi WNW 10.4 mph - N/A   Clear
1:32 PM -0.4 °F -16.7 °F -11.2 °F 60% 30.86 in 10.0 mi West 10.4 mph 16.1 mph N/A   Clear
1:53 PM -2.2 °F -18.9 °F -11.2 °F 66% 30.86 in 10.0 mi WNW 10.4 mph - N/A   Clear
2:13 PM -0.4 °F -16.7 °F -11.2 °F 60% 30.85 in 10.0 mi West 10.4 mph - N/A   Clear
2:33 PM -0.4 °F -17.6 °F -9.4 °F 66% 30.84 in 10.0 mi WNW 11.5 mph - N/A   Clear
2:52 PM -0.4 °F -16.7 °F -9.4 °F 66% 30.84 in 10.0 mi West 10.4 mph - N/A   Clear
3:13 PM -0.4 °F -16.7 °F -9.4 °F 66% 30.83 in 10.0 mi West 10.4 mph - N/A   Clear
3:32 PM -0.4 °F -15.7 °F -9.4 °F 66% 30.83 in 10.0 mi West 9.2 mph 17.3 mph N/A   Clear
3:53 PM -0.4 °F -15.7 °F -9.4 °F 66% 30.82 in 10.0 mi West 9.2 mph - N/A   Clear
4:13 PM -0.4 °F -15.7 °F -9.4 °F 66% 30.81 in 10.0 mi West 9.2 mph 16.1 mph N/A   Clear
4:32 PM -0.4 °F -16.7 °F -9.4 °F 66% 30.79 in 10.0 mi West 10.4 mph - N/A   Clear
4:53 PM -0.4 °F -12.0 °F -9.4 °F 66% 30.78 in 10.0 mi West 5.8 mph - N/A   Clear
5:13 PM -2.2 °F -12.5 °F -9.4 °F 71% 30.76 in 10.0 mi WSW 4.6 mph - N/A   Clear
5:32 PM -2.2 °F -10.4 °F -9.4 °F 71% 30.74 in 10.0 mi WSW 3.5 mph - N/A   Clear
5:53 PM -2.2 °F -14.2 °F -9.4 °F 71% 30.74 in 10.0 mi WSW 5.8 mph - N/A   Clear
6:13 PM -2.2 °F -14.2 °F -9.4 °F 71% 30.72 in 10.0 mi WSW 5.8 mph - N/A   Clear
6:32 PM -2.2 °F -15.6 °F -9.4 °F 71% 30.71 in 10.0 mi WSW 6.9 mph - N/A   Clear
6:53 PM -2.2 °F -15.6 °F -9.4 °F 71% 30.69 in 10.0 mi WSW 6.9 mph - N/A   Clear
7:13 PM -4.0 °F -16.3 °F -9.4 °F 78% 30.67 in 10.0 mi WSW 5.8 mph - N/A   Clear
7:32 PM -4.0 °F -14.6 °F -9.4 °F 78% 30.65 in 10.0 mi SW 4.6 mph - N/A   Clear
7:53 PM -4.0 °F -14.6 °F -9.4 °F 78% 30.63 in 10.0 mi SW 4.6 mph - N/A   Clear
8:13 PM -5.8 °F -18.4 °F -9.4 °F 84% 30.62 in 10.0 mi SW 5.8 mph - N/A   Clear
8:32 PM -4.0 °F -17.8 °F -9.4 °F 78% 30.61 in 10.0 mi WSW 6.9 mph - N/A   Clear
8:53 PM -4.0 °F -14.6 °F -9.4 °F 78% 30.58 in 10.0 mi WSW 4.6 mph - N/A   Clear
9:13 PM -5.8 °F -19.9 °F -11.2 °F 77% 30.57 in 10.0 mi WSW 6.9 mph - N/A   Clear
9:32 PM -5.8 °F -18.4 °F -11.2 °F 77% 30.55 in 10.0 mi WSW 5.8 mph - N/A   Clear
9:53 PM -5.8 °F -18.4 °F -11.2 °F 77% 30.52 in 10.0 mi SW 5.8 mph - N/A   Clear
10:12 PM -5.8 °F -16.7 °F -11.2 °F 77% 30.51 in 10.0 mi SW 4.6 mph - N/A   Clear
10:33 PM -5.8 °F -16.7 °F -11.2 °F 77% 30.50 in 10.0 mi SW 4.6 mph - N/A   Clear
10:53 PM -5.8 °F -16.7 °F -11.2 °F 77% 30.48 in 10.0 mi SW 4.6 mph - N/A   Clear
11:12 PM -5.8 °F -14.5 °F -11.2 °F 77% 30.46 in 10.0 mi SW 3.5 mph - N/A   Clear
11:33 PM -5.8 °F -18.4 °F -11.2 °F 77% 30.43 in 10.0 mi SW 5.8 mph - N/A   Clear
11:53 PM -5.8 °F -16.7 °F -9.4 °F 84% 30.42 in 10.0 mi SW 4.6 mph - N/A   Clear